Weather History for Lewiston, ID

Change the Weather History Date:

Sunday, April 7, 2013

  Actual Average Record
Temperature  
Mean Temperature 52 °F 50 °F  
Max Temperature 60 °F 60 °F 84 °F (1977)
Min Temperature 43 °F 39 °F 26 °F (1973)
Degree Days  
Heating Degree Days 13 15  
Month to date heating degree days 71 111  
Since 1 July heating degree days 4061 4578  
Cooling Degree Days 0 0  
Month to date cooling degree days 0 0  
Year to date cooling degree days 0 0  
Growing Degree Days 2 (Base 50)    
Moisture  
Dew Point 37 °F    
Average Humidity 64    
Maximum Humidity 92    
Minimum Humidity 35    
Precipitation  
Precipitation 0.22 in 0.04 in 0.42 in (1995)
Month to date precipitation 0.54 0.28  
Year to date precipitation 2.39 3.29  
Snow  
Snow 0.00 in 0.00 in 0.40 in (1901)
Month to date snowfall 0.0 0.0  
Since 1 July snowfall 2.6 10.5  
Snow Depth 0.00 in    
Sea Level Pressure  
Sea Level Pressure 29.70 in    
Wind  
Wind Speed 10 mph (South)    
Max Wind Speed 33 mph    
Max Gust Speed 40 mph    
Visibility 10 miles    
Events Rain    
T = Trace of Precipitation, MM = Missing Value Source: NWS Daily Summary

Daily Weather History Graph

Daily Weather History Graph

Search for Another Location

Airport:

Trip Planner

Search our weather history database for the weather conditions in past years. The results will help you decide how hot, cold, wet, or windy it might be!

Date:

Astronomy

Apr. 07, 2013 Rise Set
Actual Time 6:15 AM PDT 7:25 PM PDT
Civil Twilight 5:44 AM PDT 7:56 PM PDT
Nautical Twilight 5:07 AM PDT 8:33 PM PDT
Astronomical Twilight 4:28 AM PDT 9:13 PM PDT
Moon 4:44 AM PDT (4/7) 4:55 PM PDT (4/7)
Length of Visible Light 14h 11m
Length of Day
13h 09m
Waning Crescent, 7% of the Moon is Illuminated
Apr 7
Waning Crescent
Apr 10
New
Apr 18
First Quarter
Apr 25
Full
May 2
Last Quarter

Hourly Weather History & Observations

Time (PDT) Temp. Windchill Dew Point Humidity Pressure Visibility Wind Dir Wind Speed Gust Speed Precip Events Conditions
12:56 AM 46.9 °F - 42.1 °F 83% 29.84 in 10.0 mi ESE 4.6 mph - 0.01 in Rain Light Rain
1:56 AM 46.0 °F 43.9 °F 43.0 °F 89% 29.81 in 10.0 mi East 4.6 mph - 0.04 in Rain Light Rain
2:56 AM 45.0 °F 42.6 °F 42.1 °F 90% 29.78 in 10.0 mi East 4.6 mph - 0.02 in Rain Light Rain
3:56 AM 45.0 °F 41.2 °F 42.1 °F 90% 29.73 in 10.0 mi ENE 6.9 mph - 0.02 in Rain Light Rain
4:56 AM 44.1 °F 41.5 °F 42.1 °F 93% 29.70 in 10.0 mi ESE 4.6 mph - 0.00 in   Overcast
5:23 AM 44.6 °F 42.2 °F 42.8 °F 93% 29.69 in 10.0 mi East 4.6 mph - 0.00 in Rain Light Rain
5:32 AM 44.6 °F 41.4 °F 42.8 °F 93% 29.68 in 9.0 mi East 5.8 mph - 0.01 in Rain Rain
5:56 AM 44.1 °F 39.5 °F 42.1 °F 93% 29.66 in 9.0 mi ENE 8.1 mph - 0.04 in Rain Light Rain
6:56 AM 44.1 °F 41.5 °F 42.1 °F 93% 29.67 in 8.0 mi East 4.6 mph - 0.06 in Rain Light Rain
7:56 AM 45.0 °F - 43.0 °F 93% 29.65 in 10.0 mi Calm Calm - 0.03 in   Overcast
8:56 AM 46.9 °F - 44.1 °F 90% 29.64 in 10.0 mi Calm Calm - 0.00 in Rain Light Rain
9:56 AM 50.0 °F - 43.0 °F 77% 29.62 in 10.0 mi South 12.7 mph 17.3 mph 0.01 in   Mostly Cloudy
10:56 AM 52.0 °F - 41.0 °F 66% 29.64 in 10.0 mi WNW 4.6 mph - N/A   Mostly Cloudy
11:56 AM 55.9 °F - 39.0 °F 53% 29.62 in 10.0 mi West 18.4 mph 28.8 mph N/A   Scattered Clouds
12:56 PM 57.0 °F - 33.1 °F 40% 29.62 in 10.0 mi WSW 17.3 mph 28.8 mph 0.00 in   Clear
1:56 PM 60.1 °F - 34.0 °F 38% 29.63 in 10.0 mi WSW 27.6 mph 33.4 mph N/A   Mostly Cloudy
2:56 PM 55.0 °F - 30.0 °F 38% 29.65 in 10.0 mi WSW 28.8 mph 38.0 mph N/A   Scattered Clouds
3:56 PM 55.9 °F - 28.9 °F 36% 29.66 in 10.0 mi WSW 18.4 mph 32.2 mph 0.00 in   Clear
4:56 PM 55.9 °F - 28.9 °F 36% 29.67 in 10.0 mi West 25.3 mph 33.4 mph N/A   Clear
5:56 PM 53.1 °F - 30.9 °F 43% 29.70 in 10.0 mi SSW 13.8 mph - N/A   Clear
6:56 PM 52.0 °F - 30.0 °F 43% 29.72 in 10.0 mi SW 11.5 mph - N/A   Partly Cloudy
7:56 PM 48.0 °F - 32.0 °F 54% 29.75 in 10.0 mi SSW 5.8 mph - N/A   Partly Cloudy
8:56 PM 48.0 °F - 33.1 °F 56% 29.77 in 10.0 mi South 5.8 mph - N/A   Overcast
9:56 PM 46.0 °F 42.5 °F 33.1 °F 61% 29.78 in 10.0 mi SSW 6.9 mph - 0.00 in   Mostly Cloudy
10:56 PM 45.0 °F 40.6 °F 33.1 °F 63% 29.78 in 10.0 mi SW 8.1 mph - N/A   Overcast
11:56 PM 44.1 °F 41.5 °F 34.0 °F 68% 29.78 in 10.0 mi South 4.6 mph - N/A   Mostly Cloudy